Flag for Germany Weather past 2 weeks in Saalfeld/Saale, Thuringia, Germany

Now
73 °F

Clear.


Feels Like: 77 °F
Forecast: 60 / 84 °F
Wind: 8 mph from South

Location: Erfurt-Bindersleben

Current Time: Aug 31, 2015 at 11:51:35 PM

Latest Report: Aug 31, 2015 at 11:20 PM


Visibility: 10 mi

Pressure: 29.83 "Hg

Humidity: 53%

Dew point: 55 °F

Location of Saalfeld/SaaleLocation

Historic Weather in Saalfeld/Saale — Graph

°F

Saalfeld/Saale temperature yesterday

Maximum temperature yesterday: 91 °F (at 3:50 PM)
Minimum temperature yesterday: 61 °F (at 6:50 AM)
Average temperature yesterday: 75 °F

Past Weeks' High & Low Weather Summary

 TemperatureHumidityPressure
High91 °F (Aug 30, 3:50 PM)100% (Aug 17, 12:20 AM)30.30 "Hg (Aug 17, 12:20 AM)
Low48 °F (Aug 19, 6:50 AM)28% (Aug 31, 4:20 PM)29.71 "Hg (Aug 24, 1:50 PM)
Average65 °F71%30.03 "Hg
* Reported Aug 16 10:20 PM — Aug 31 10:20 PM, Saalfeld/Saale, Weather by CustomWeather, © 2015

Note: Actual official high and low records may vary slightly from our data, if they occured in-between our weather recording intervals... More about our weather records

Advertising

Saalfeld/Saale weather history for previous 24 hours

 ConditionsComfort  
Time TempWeatherWind HumidityBarometerVisibility
10:20 PM
Mon, Aug 31
75 °FClear.7 mph50%29.83 "Hg10 mi
9:50 PM75 °FClear.7 mph50%29.83 "Hg10 mi
9:20 PM79 °FClear.6 mph42%29.83 "Hg10 mi
8:50 PM81 °FPassing clouds.3 mph37%29.83 "HgN/A
8:20 PM81 °FSunny.3 mph37%29.83 "Hg10 mi
7:50 PM82 °FPassing clouds.6 mph35%29.83 "HgN/A
7:20 PM86 °FPassing clouds.8 mph38%29.83 "HgN/A
6:50 PM88 °FPassing clouds.10 mph33%29.86 "HgN/A
6:20 PM88 °FPassing clouds.10 mph38%29.86 "HgN/A
5:50 PM90 °FPassing clouds.15 mph31%29.86 "HgN/A
5:20 PM90 °FSunny.13 mph29%29.86 "Hg10 mi
4:50 PM90 °FPassing clouds.9 mph29%29.86 "HgN/A
4:20 PM91 °FPassing clouds.8 mph28%29.86 "HgN/A
3:50 PM91 °FPassing clouds.6 mph32%29.89 "HgN/A
3:20 PM91 °FPassing clouds.7 mph32%29.89 "HgN/A
2:50 PM90 °FSunny.1 mph36%29.89 "Hg10 mi
2:20 PM90 °FSunny.5 mph38%29.92 "Hg10 mi
1:50 PM88 °FSunny.2 mph40%29.92 "Hg10 mi
1:20 PM86 °FSunny.3 mph49%29.92 "Hg10 mi
12:50 PM86 °FSunny.1 mph46%29.95 "Hg10 mi
12:20 PM82 °FPassing clouds.3 mph55%29.95 "HgN/A
11:50 AM82 °FPassing clouds.3 mph55%29.98 "HgN/A
11:20 AM81 °FSunny.5 mph54%29.98 "Hg10 mi
10:50 AM79 °FSunny.3 mph58%29.98 "Hg10 mi
10:20 AM77 °FSunny.3 mph65%29.98 "Hg10 mi
9:50 AM75 °FSunny.5 mph65%29.98 "Hg10 mi
9:20 AM73 °FSunny.3 mph74%29.98 "Hg10 mi
8:50 AM72 °FSunny.2 mph73%29.98 "Hg10 mi
8:20 AM70 °FSunny.6 mph78%29.98 "Hg10 mi
7:50 AM68 °FSunny.6 mph83%29.98 "Hg10 mi
7:20 AM66 °FClear.7 mph83%29.98 "Hg10 mi
6:50 AM64 °FClear.5 mph83%30.01 "Hg10 mi
6:20 AM63 °FClear.6 mph88%29.98 "Hg10 mi
5:50 AM64 °FClear.2 mph83%29.98 "Hg10 mi
5:20 AM64 °FClear.8 mph88%30.01 "Hg10 mi
4:50 AM64 °FClear.9 mph88%30.01 "Hg10 mi
4:20 AM64 °FClear.9 mph88%30.01 "Hg10 mi
3:50 AM66 °FClear.9 mph83%30.01 "Hg10 mi
3:20 AM68 °FClear.10 mph78%30.01 "Hg10 mi
2:50 AM66 °FClear.9 mph83%30.01 "Hg10 mi
2:20 AM68 °FClear.9 mph78%30.04 "Hg10 mi
1:50 AM70 °FClear.10 mph73%30.04 "Hg10 mi
1:20 AM70 °FClear.8 mph73%30.04 "Hg10 mi
12:50 AM72 °FClear.7 mph69%30.04 "Hg10 mi
12:20 AM72 °FClear.7 mph69%30.04 "Hg10 mi
11:20 PM
Sun, Aug 30
73 °FClear.8 mph69%30.04 "Hg10 mi
Weather by CustomWeather, © 2015

See weather overviewHow to use our weather pages